• In Czech Republic
  • List of Countries
  • For 7 days
  • Water Temperature
  • Satellite Maps
  • Weather Map
  • Weather Widgets
  • user-avatar
    Login

    Hourly Weather Sittingbourne

    Today, 20 November, Monday

    Time Temperature Precipitation Wind Pressure Humidity
    00:00 +4°C° 0 mm 4 mps 764 mmHg 86%
    01:00 +4°C° 0 mm 4 mps 764 mmHg 85%
    02:00 +5°C° 0 mm 5 mps 763 mmHg 85%
    03:00 +6°C° 0 mm 5 mps 763 mmHg 84%
    04:00 +7°C° 0 mm 6 mps 762 mmHg 87%
    05:00 +7°C° 0 mm 6 mps 762 mmHg 90%
    06:00 +8°C° 0 mm 7 mps 761 mmHg 93%
    07:00 +9°C° 0.1 mm 7 mps 761 mmHg 90%
    08:00 +9°C° 0.1 mm 8 mps 760 mmHg 87%
    09:00 +8°C° 0.1 mm 9 mps 760 mmHg 84%
    10:00 +10°C° 0 mm 9 mps 760 mmHg 84%
    11:00 +10°C° 0 mm 9 mps 759 mmHg 84%
    12:00 +11°C° 0 mm 9 mps 759 mmHg 83%
    13:00 +11°C° 0 mm 9 mps 759 mmHg 84%
    14:00 +11°C° 0 mm 9 mps 758 mmHg 85%
    15:00 +11°C° 0 mm 9 mps 758 mmHg 86%
    16:00 +11°C° 0.2 mm 9 mps 758 mmHg 87%
    17:00 +11°C° 0.2 mm 9 mps 758 mmHg 88%
    18:00 +11°C° 0.2 mm 9 mps 758 mmHg 89%
    19:00 +11°C° 0.2 mm 8 mps 758 mmHg 89%
    20:00 +11°C° 0.2 mm 8 mps 758 mmHg 90%
    21:00 +11°C° 0.2 mm 8 mps 758 mmHg 90%
    22:00 +11°C° 0.2 mm 8 mps 758 mmHg 90%
    23:00 +11°C° 0.2 mm 8 mps 758 mmHg 91%

    Tomorrow, 21 November, Tuesday

    Time Temperature Precipitation Wind Pressure Humidity
    00:00 +11°C° 0.2 mm 8 mps 758 mmHg 91%
    01:00 +11°C° 0.1 mm 8 mps 758 mmHg 90%
    02:00 +11°C° 0.1 mm 8 mps 757 mmHg 90%
    03:00 +11°C° 0.1 mm 7 mps 757 mmHg 90%
    04:00 +11°C° 0 mm 7 mps 757 mmHg 90%
    05:00 +11°C° 0 mm 7 mps 757 mmHg 91%
    06:00 +10°C° 0 mm 7 mps 757 mmHg 91%
    07:00 +10°C° 0 mm 7 mps 757 mmHg 91%
    08:00 +10°C° 0 mm 7 mps 757 mmHg 90%
    09:00 +11°C° 0 mm 7 mps 757 mmHg 90%
    10:00 +11°C° 0 mm 7 mps 756 mmHg 87%
    11:00 +12°C° 0 mm 8 mps 756 mmHg 84%
    12:00 +12°C° 0 mm 8 mps 756 mmHg 81%
    13:00 +12°C° 0 mm 8 mps 756 mmHg 82%
    14:00 +12°C° 0 mm 8 mps 755 mmHg 82%
    15:00 +12°C° 0 mm 9 mps 755 mmHg 83%
    16:00 +12°C° 0 mm 9 mps 754 mmHg 82%
    17:00 +12°C° 0 mm 9 mps 754 mmHg 81%
    18:00 +12°C° 0 mm 9 mps 754 mmHg 81%
    19:00 +12°C° 0 mm 9 mps 753 mmHg 81%
    20:00 +12°C° 0 mm 9 mps 753 mmHg 81%
    21:00 +12°C° 0 mm 9 mps 753 mmHg 80%
    22:00 +12°C° 0 mm 10 mps 753 mmHg 80%
    23:00 +12°C° 0 mm 10 mps 752 mmHg 79%

    Day after tomorrow, 22 November, Wednesday

    Time Temperature Precipitation Wind Pressure Humidity
    00:00 +12°C° 0 mm 10 mps 752 mmHg 79%
    01:00 +12°C° 0 mm 10 mps 752 mmHg 79%
    02:00 +12°C° 0 mm 10 mps 752 mmHg 80%
    03:00 +12°C° 0 mm 10 mps 751 mmHg 80%
    04:00 +12°C° 0 mm 10 mps 751 mmHg 81%
    05:00 +12°C° 0 mm 10 mps 751 mmHg 81%
    06:00 +12°C° 0 mm 9 mps 751 mmHg 82%
    07:00 +12°C° 0 mm 9 mps 751 mmHg 80%
    08:00 +12°C° 0 mm 9 mps 751 mmHg 78%
    09:00 +12°C° 0 mm 9 mps 751 mmHg 77%
    10:00 +13°C° 0 mm 10 mps 750 mmHg 70%
    11:00 +13°C° 0 mm 10 mps 750 mmHg 63%
    12:00 +14°C° 0 mm 10 mps 749 mmHg 56%
    13:00 +13°C° 0 mm 10 mps 749 mmHg 55%
    14:00 +13°C° 0 mm 10 mps 748 mmHg 55%
    15:00 +13°C° 0 mm 10 mps 747 mmHg 55%
    16:00 +13°C° 0 mm 11 mps 747 mmHg 55%
    17:00 +13°C° 0 mm 11 mps 746 mmHg 54%
    18:00 +13°C° 0 mm 12 mps 746 mmHg 54%
    19:00 +13°C° 0.1 mm 13 mps 745 mmHg 61%
    20:00 +13°C° 0.1 mm 13 mps 745 mmHg 68%
    21:00 +13°C° 0.1 mm 13 mps 745 mmHg 75%
    22:00 +14°C° 0.3 mm 13 mps 744 mmHg 75%
    23:00 +14°C° 0.3 mm 13 mps 744 mmHg 75%

    23 November, Thursday

    Time Temperature Precipitation Wind Pressure Humidity
    00:00 +14°C° 0.3 mm 13 mps 744 mmHg 75%
    01:00 +13°C° 0.4 mm 13 mps 744 mmHg 77%
    02:00 +13°C° 0.4 mm 13 mps 744 mmHg 78%
    03:00 +13°C° 0.4 mm 12 mps 744 mmHg 80%
    04:00 +13°C° 0 mm 12 mps 745 mmHg 80%
    05:00 +13°C° 0 mm 11 mps 746 mmHg 80%
    06:00 +12°C° 0 mm 10 mps 747 mmHg 81%
    07:00 +13°C° 0 mm 10 mps 748 mmHg 81%
    08:00 +13°C° 0 mm 10 mps 749 mmHg 81%
    09:00 +13°C° 0 mm 9 mps 750 mmHg 81%
    10:00 +13°C° 0.1 mm 9 mps 750 mmHg 81%
    11:00 +13°C° 0.1 mm 9 mps 751 mmHg 80%
    12:00 +14°C° 0.1 mm 10 mps 752 mmHg 79%
    13:00 +15°C° 0 mm 9 mps 752 mmHg 79%
    14:00 +15°C° 0 mm 9 mps 752 mmHg 79%
    15:00 +15°C° 0 mm 9 mps 752 mmHg 79%
    16:00 +15°C° 0 mm 9 mps 752 mmHg 80%
    17:00 +14°C° 0 mm 10 mps 752 mmHg 80%
    18:00 +14°C° 0 mm 10 mps 752 mmHg 80%
    19:00 +14°C° 0 mm 10 mps 752 mmHg 80%
    20:00 +14°C° 0 mm 10 mps 752 mmHg 80%
    21:00 +14°C° 0 mm 11 mps 752 mmHg 80%
    22:00 +14°C° 0 mm 11 mps 751 mmHg 79%
    23:00 +14°C° 0 mm 12 mps 751 mmHg 78%

    24 November, Friday

    Time Temperature Precipitation Wind Pressure Humidity
    00:00 +14°C° 0 mm 12 mps 750 mmHg 77%
    01:00 +14°C° 0.1 mm 12 mps 750 mmHg 78%
    02:00 +14°C° 0.1 mm 13 mps 749 mmHg 79%
    03:00 +14°C° 0.1 mm 13 mps 749 mmHg 80%
    04:00 +14°C° 1.2 mm 13 mps 749 mmHg 81%
    05:00 +13°C° 1.2 mm 12 mps 749 mmHg 83%
    06:00 +13°C° 1.2 mm 11 mps 749 mmHg 85%
    07:00 +13°C° 0.3 mm 10 mps 750 mmHg 84%
    08:00 +13°C° 0.3 mm 10 mps 750 mmHg 83%
    09:00 +12°C° 0.3 mm 9 mps 750 mmHg 82%
    10:00 +12°C° 0.9 mm 8 mps 751 mmHg 84%
    11:00 +12°C° 0.9 mm 8 mps 751 mmHg 85%
    12:00 +12°C° 0.9 mm 7 mps 751 mmHg 87%
    13:00 +11°C° 1.9 mm 7 mps 751 mmHg 87%
    14:00 +11°C° 1.9 mm 7 mps 751 mmHg 88%
    15:00 +11°C° 1.9 mm 7 mps 751 mmHg 88%
    16:00 +10°C° 0.8 mm 6 mps 751 mmHg 86%
    17:00 +10°C° 0.8 mm 5 mps 751 mmHg 84%
    18:00 +10°C° 0.8 mm 4 mps 751 mmHg 83%
    19:00 +10°C° 1.1 mm 4 mps 751 mmHg 83%
    20:00 +9°C° 1.1 mm 3 mps 751 mmHg 83%
    21:00 +9°C° 1.1 mm 3 mps 751 mmHg 84%
    22:00 +9°C° 0.6 mm 3 mps 752 mmHg 84%
    23:00 +9°C° 0.6 mm 3 mps 752 mmHg 85%

    25 November, Saturday

    Time Temperature Precipitation Wind Pressure Humidity
    00:00 +8°C° 0.6 mm 3 mps 752 mmHg 85%
    01:00 +8°C° 0.8 mm 3 mps 751 mmHg 86%
    02:00 +7°C° 0.8 mm 4 mps 751 mmHg 87%
    03:00 +7°C° 0.8 mm 4 mps 751 mmHg 88%
    04:00 +7°C° 1.8 mm 4 mps 750 mmHg 89%
    05:00 +6°C° 1.8 mm 5 mps 750 mmHg 90%
    06:00 +6°C° 1.8 mm 5 mps 749 mmHg 92%
    07:00 +6°C° 2.4 mm 5 mps 749 mmHg 91%
    08:00 +6°C° 2.4 mm 5 mps 750 mmHg 90%
    09:00 +6°C° 2.4 mm 5 mps 750 mmHg 89%
    10:00 +5°C° 1 mm 6 mps 750 mmHg 87%
    11:00 +5°C° 1 mm 6 mps 751 mmHg 85%
    12:00 +5°C° 1 mm 6 mps 752 mmHg 83%
    13:00 +4°C° 0.6 mm 7 mps 753 mmHg 81%
    14:00 +4°C° 0.6 mm 8 mps 754 mmHg 78%
    15:00 +4°C° 0.6 mm 8 mps 755 mmHg 75%
    16:00 +4°C° 0.4 mm 7 mps 756 mmHg 75%
    17:00 +4°C° 0.4 mm 6 mps 757 mmHg 75%
    18:00 +3°C° 0.4 mm 5 mps 758 mmHg 75%
    19:00 +3°C° 0 mm 5 mps 759 mmHg 74%
    20:00 +4°C° 0 mm 4 mps 760 mmHg 72%
    21:00 +4°C° 0 mm 4 mps 761 mmHg 71%
    22:00 +3°C° 0 mm 4 mps 761 mmHg 71%
    23:00 +3°C° 0 mm 3 mps 761 mmHg 72%
    Show more